Location: Gleizolles
(44.4833°N, 6.7667°E)
Time: 20:53:03
(UTC+00:00)

STARLINK-1204 - Pass Details

Date: 09 April 2020
Orbit: 548 x 551 km, 53.0° (Epoch: 26 May)

Event Time Altitude Azimuth Distance (km) Brightness Sun altitude
Rises 19:52:21 0° 300° (WNW) 2,735 9.0 -17.6°
Reaches altitude 10° 19:54:39 10° 295° (WNW) 1,837 7.6 -18.0°
Maximum altitude 19:58:40 47° 221° (SW) 735 4.2 -18.6°
Enters shadow 20:00:00 34° 172° (S) 924 4.4 -18.8°
